SCP
0 0 0 0 0 0 0 0 0 0 0 0 0 0 0 0 0 0 0 0 0 0 0 0 0 0 0 0 0 0 0 0 0 0 0 0 0 -0 -0 0 0 0 0
0 0 0 0 0 0 0 0 0 0 0 0 0 0 0 0 0 0 0 0 0 0 0 0 0 0 0 0 0 0 0 0 0 0 0 0 0 -0 -0 0 0 0 0
0 0 0 0 0 0 0 0 0 0 0 0 0 0 0 0 0 0 0 0 0 0 0 0 0 0 0 0 0 0 0 0 0 0 0 0 0 0 0 -0 0 0 0
0 0 0 0 0 0 0 0 0 0 0 0 0 0 0 0 0 0 0 0 0 0 0 0 0 0 0 0 0 0 0 0 0 0 0 0 0 0 0 0 0 0 0
0 0 0 0 0 0 0 0 0 0 0 0 0 0 0 0 0 0 0 0 0 0 0 0 0 0 0 0 0 0 -0 -0 0 0 0 0 0 0 0 0 0 0 0
0 0 0 0 0 0 0 0 0 0 0 0 0 0 0 0 0 0 0 0 0 0 0 0 0 0 0 -0 -0 -0 -0 -0 0 0 0 0 0 0 0 0 0 0 0
0 0 0 0 0 0 0 0 0 0 0 0 0 0 0 0 0 0 0 0 0 0 0 0 0 -0 -0 -0 -0 0 0 0 0 0 0 0 0 0 0 0 0 0 0
0 0 0 0 0 0 0 0 0 0 0 0 0 0 0 0 0 0 0 0 0 0 0 0 0 -0 -0 -0 -0 0 0 0 0 0 0 0 0 0 0 0 0 0 0
0 0 0 0 0 0 0 0 0 0 0 0 0 0 0 0 0 0 0 0 0 0 0 0 0 -0 -0 -0 0 0 0 0 0 0 0 0 0 0 0 0 0 0 0
0 0 0 0 0 0 0 0 0 0 0 0 0 0 0 0 0 0 0 0 0 0 0 0 0 0 -0 -0 0 0 0 0 0 0 0 0 0 0 0 0 0 0 0
0 0 0 0 0 0 0 0 0 0 0 0 0 0 0 0 0 0 0 0 0 0 0 0 0 0 0 0 0 0 0 0 0 0 0 0 0 0 0 0 0 0 0
0 0 0 0 0 0 0 0 0 0 0 0 0 0 0 0 0 0 0 0 0 0 0 0 0 0 -0 -0 0 0 0 0 0 0 0 0 0 0 0 0 0 0 0
0 0 0 0 0 0 0 0 0 0 0 0 0 0 0 0 0 0 0 0 0 0 0 0 0 0 -0 -0 0 0 0 0 0 0 0 0 0 0 0 0 0 0 0
0 0 0 0 0 0 0 0 0 0 0 0 0 0 0 0 0 0 0 0 0 0 0 0 0 0 -0 0 0 0 0 0 0 0 0 0 0 0 0 0 0 0 0
0 0 0 0 0 0 0 0 0 0 0 0 0 0 0 0 0 0 0 0 0 0 0 0 0 0 0 0 0 0 0 0 0 0 0 0 0 0 0 0 0 0 0
0 0 0 0 0 0 0 0 0 0 0 0 0 0 0 0 0 0 0 0 0 0 0 0 0 0 0 0 0 0 0 0 0 0 0 0 0 0 0 0 0 0 0
0 0 0 0 0 0 0 0 0 0 0 0 0 0 0 0 0 0 -0 0 0 0 0 0 0 0 -0 -0 0 0 0 0 0 0 0 0 0 0 0 0 0 0 0
0 0 0 0 0 0 0 0 0 0 0 0 0 0 0 0 0 0 0 0 0 0 0 0 0 0 -0 -0 0 0 0 0 0 0 0 0 0 0 0 0 0 0 0
0 0 0 0 0 0 0 0 0 0 0 0 0 0 0 0 0 0 0 0 0 0 0 0 0 0 -0 -0 -0 0 0 0 0 0 0 0 0 0 0 0 0 0 0
0 0 0 0 0 0 0 0 0 0 0 0 0 0 0 0 0 0 0 0 0 0 0 0 0 0 -0 -0 -0 -0 -0 0 0 0 0 0 0 0 0 0 0 0 0
0 0 0 0 0 0 0 0 0 0 0 0 0 0 0 0 0 0 0 0 0 0 0 0 0 0 0 -0 -0 -0 -0 -0 0 0 0 0 0 0 0 0 0 0 0
0 0 0 0 0 0 0 0 0 0 0 0 0 0 0 0 0 0 0 0 0 0 0 0 0 0 0 0 -0 -0 -0 -0 -0 -0 0 0 0 0 0 0 0 0 0
0 0 0 0 0 0 0 0 0 0 0 0 0 0 0 0 0 0 0 0 0 0 0 0 0 0 0 0 0 -0 -0 -0 -0 -0 -0 0 0 0 0 0 0 0 0
0 0 0 0 0 0 0 0 0 0 0 0 0 0 0 0 0 0 0 0 0 0 0 0 0 0 0 0 0 0 -0 -0 -0 -0 -0 -0 0 0 0 0 0 0 0
0 0 0 0 0 0 0 0 0 0 0 0 0 0 0 0 0 0 0 0 0 0 0 0 0 0 0 0 0 0 0 -0 -0 -0 -0 -0 -0 0 0 0 0 0 0
0 0 0 0 0 0 0 0 0 0 0 0 0 0 0 0 0 0 0 0 0 0 0 0 0 0 0 0 0 0 0 -0 -0 -0 -0 -0 -0 0 0 0 0 0 0
Wind_Speed
8 7 7 8 8 8 7 8 8 8 8 9 9 8 8 8 7 6 7 8 8 7 8 8 9 8 6 5 5 6 7 7 10 7 6 7 8 7 3 2 3 3 3
8 7 7 7 7 8 8 8 8 7 8 8 8 8 8 8 7 8 10 10 11 11 11 10 10 9 7 6 6 8 7 7 9 11 7 5 7 6 3 3 3 3 2
8 7 6 7 7 8 8 8 7 7 7 8 8 8 8 8 8 9 10 11 12 12 12 11 11 9 8 7 8 8 7 8 7 9 8 5 4 3 2 4 5 3 4
8 8 7 7 7 7 7 7 6 6 6 6 7 8 9 9 11 12 13 13 13 13 12 11 10 7 7 8 8 8 8 9 8 8 8 5 4 2 3 3 4 4 5
8 8 7 7 7 7 6 5 5 6 8 7 6 6 7 6 9 13 14 15 15 14 12 9 8 11 13 10 10 9 10 9 9 8 7 6 4 3 3 4 5 5 5
8 8 8 6 7 6 5 5 6 6 7 6 6 6 6 5 7 14 17 16 15 13 11 8 8 9 14 18 20 21 20 15 11 9 7 6 5 4 5 6 6 3 3
7 8 7 6 6 6 7 7 7 6 7 6 5 4 5 3 5 11 21 17 14 11 10 8 8 10 13 12 18 23 20 21 20 12 8 6 5 5 8 7 5 4 4
6 6 6 6 7 6 6 7 7 6 6 5 5 4 5 6 8 12 21 15 13 11 10 7 7 10 11 15 16 16 15 13 10 8 6 5 6 9 8 9 11 10 8
7 6 7 7 8 8 7 7 6 6 6 6 5 5 6 7 11 14 20 14 11 14 12 8 8 10 16 19 16 15 14 7 1 5 6 9 15 17 15 12 10 10 9
7 6 5 5 6 8 5 5 5 5 6 7 6 5 7 8 11 14 19 12 12 12 12 9 10 13 18 17 13 12 11 5 5 7 10 14 14 14 13 10 9 10 9
7 7 6 5 5 5 4 4 4 4 6 7 7 6 7 9 11 15 19 13 12 13 11 9 9 17 18 14 12 10 9 3 6 9 9 10 9 8 8 8 6 4 7
7 7 7 6 6 5 4 4 3 3 5 6 6 8 8 8 11 14 18 18 16 13 10 9 10 17 16 11 10 12 10 5 6 7 8 8 8 8 8 9 10 10 10
7 7 6 7 4 3 4 4 4 3 6 8 9 9 9 9 10 15 16 17 20 13 10 16 17 16 11 7 12 14 8 4 5 6 8 8 8 9 10 11 12 12 13
7 7 7 5 5 6 4 4 5 7 9 9 10 10 9 9 10 11 11 11 14 12 11 13 13 11 8 6 8 9 7 6 5 7 8 9 8 8 9 9 9 9 11
6 6 10 7 8 6 6 8 9 10 9 8 9 10 9 9 12 17 13 10 11 12 12 6 6 7 7 5 5 7 7 6 6 6 7 9 9 9 8 5 6 8 10
7 7 8 6 6 7 7 8 13 10 9 7 6 8 8 8 13 16 18 17 16 18 10 6 7 7 7 6 5 5 6 6 6 6 7 7 8 9 8 6 7 8 8
8 7 8 8 8 8 8 7 6 4 3 2 5 11 11 9 11 16 18 17 14 14 7 7 7 7 7 5 5 5 5 5 5 6 7 7 8 8 8 8 8 7 6
8 9 9 7 8 9 10 11 10 9 8 5 7 15 16 11 10 14 15 12 9 9 8 7 7 7 7 5 5 5 4 4 5 6 6 7 8 7 7 7 7 7 6
8 7 7 8 8 10 11 11 11 11 10 9 9 12 15 12 11 12 11 7 7 8 8 8 8 7 7 6 5 5 6 6 6 5 6 7 6 6 6 6 6 8 6
6 7 8 8 10 10 11 11 10 10 10 9 9 10 11 10 8 9 8 7 7 7 8 8 8 8 7 6 5 5 5 6 6 6 5 5 5 4 5 6 5 5 4
8 8 9 10 10 11 12 11 11 10 9 8 8 10 14 9 9 9 7 7 7 7 7 7 7 8 7 5 5 5 5 5 5 5 5 5 5 4 4 5 5 5 5
7 7 8 9 10 11 12 11 10 10 10 10 8 10 13 9 8 8 7 7 7 6 6 6 6 6 6 5 4 4 4 4 5 4 4 5 5 5 5 4 4 4 5
8 8 8 9 10 12 12 11 10 9 9 9 9 9 9 9 8 8 8 8 7 7 7 6 6 6 5 5 4 4 4 4 3 3 4 4 4 3 3 4 5 5 5
9 9 10 9 10 10 11 10 9 9 9 9 9 9 9 9 9 10 9 8 8 8 8 8 8 10 11 7 5 5 5 3 1 3 5 4 3 2 2 3 4 4 5
9 9 10 10 9 9 9 9 9 8 8 9 9 9 10 10 10 10 10 9 10 10 11 10 8 10 12 12 10 8 8 7 4 2 5 5 4 2 2 2 3 3 5
9 9 9 9 9 9 9 8 8 8 7 7 8 8 9 9 10 10 10 10 10 10 11 10 13 15 16 11 12 11 10 10 9 5 3 5 5 4 3 3 3 3 6
Wind_Direction
359 3 5 360 354 346 341 339 333 326 322 319 317 311 308 303 303 305 304 305 309 304 297 292 289 283 276 277 284 279 270 267 277 278 273 279 277 282 285 109 105 95 67
357 6 12 356 349 339 335 329 325 325 323 320 314 314 320 330 341 354 352 346 332 320 312 304 299 293 277 278 278 276 270 263 271 279 277 273 273 276 209 146 114 88 49
357 358 359 345 336 326 322 320 322 324 324 327 334 343 346 350 7 5 349 336 323 312 306 300 297 292 281 279 279 277 271 269 263 274 277 262 258 248 171 120 92 64 44
346 340 336 330 324 317 320 323 330 338 336 343 348 357 358 7 16 358 345 330 319 311 301 292 289 289 290 294 295 292 290 284 271 268 270 258 238 199 141 125 100 67 49
331 333 333 327 324 327 333 337 345 343 338 339 350 1 359 9 15 357 343 330 319 311 310 315 326 325 320 316 308 301 295 285 275 262 259 251 221 175 148 127 116 104 66
330 326 322 332 333 337 336 345 346 338 334 337 348 359 358 11 4 352 350 330 315 312 321 327 328 329 324 316 310 306 298 287 274 257 247 237 203 154 134 136 134 133 96
309 309 319 336 335 346 344 343 338 331 330 329 340 356 355 40 5 349 349 331 316 319 323 324 332 329 323 316 311 306 298 286 270 251 237 219 173 147 141 131 111 93 92
329 346 350 350 347 342 331 334 330 327 325 326 332 350 354 23 12 356 348 330 322 323 321 326 336 328 324 323 313 307 304 293 267 228 213 187 144 137 130 121 116 103 82
11 3 359 352 336 321 329 333 329 329 328 330 336 351 1 13 18 4 354 331 330 329 321 326 342 331 327 326 320 316 317 321 338 160 152 133 129 129 129 124 123 115 100
352 344 330 321 311 310 330 332 331 326 332 332 338 6 19 14 17 10 353 336 333 327 319 329 341 336 330 329 326 322 324 356 72 90 99 105 113 119 119 123 128 125 118
329 316 302 298 294 305 325 312 318 338 342 339 357 10 24 18 9 4 348 339 335 325 321 331 332 331 330 331 331 329 335 18 84 91 96 100 104 102 93 87 82 97 108
312 304 302 295 294 308 301 301 329 5 357 356 2 0 5 8 7 353 339 333 330 323 323 329 327 328 333 350 349 345 359 49 90 97 100 102 103 102 98 94 91 88 93
310 307 304 302 296 312 315 333 349 14 13 4 4 356 357 359 355 349 339 332 332 332 330 330 332 335 347 8 354 355 10 49 85 98 101 101 100 104 103 103 104 101 98
339 342 326 324 8 345 333 1 12 26 25 16 6 354 358 359 356 349 342 338 338 339 332 327 331 342 3 13 3 4 23 46 70 88 98 103 105 108 110 115 118 115 111
340 355 332 356 20 347 15 44 59 65 64 41 16 358 3 1 349 340 343 344 341 335 327 331 352 355 358 14 28 19 24 43 65 81 98 108 112 113 114 110 111 115 119
352 6 341 8 9 360 15 69 77 105 105 84 39 12 14 7 345 347 349 343 339 340 346 357 359 355 356 17 44 40 36 43 56 70 87 103 112 116 112 100 102 110 119
9 9 347 10 7 11 11 33 76 101 134 142 29 17 8 4 2 356 350 343 348 351 359 0 359 355 357 14 43 55 57 57 62 70 82 93 103 107 106 108 112 114 111
21 11 360 16 14 17 23 33 32 28 31 30 21 13 6 15 12 358 349 350 1 1 359 358 357 355 357 11 40 57 66 72 76 80 81 87 96 100 103 107 114 121 120
45 22 6 20 25 29 34 32 30 29 27 24 18 7 360 0 2 0 357 8 3 355 353 356 356 356 1 15 39 47 58 79 85 88 91 96 100 102 106 112 119 132 127
85 42 18 31 29 37 40 33 30 28 24 21 16 5 352 352 1 2 5 5 359 354 352 352 352 356 3 15 27 42 55 67 73 76 81 95 110 111 114 123 130 129 119
53 44 35 44 41 43 43 36 33 28 23 18 10 2 355 356 359 359 1 0 355 350 348 346 345 348 358 11 19 37 57 69 69 64 65 84 108 104 96 102 111 114 115
51 54 43 48 55 52 49 42 35 28 21 15 3 359 358 1 0 359 358 356 349 342 337 337 340 343 349 1 17 44 69 81 82 75 64 66 84 97 102 112 119 121 121
51 49 50 55 63 67 58 49 38 29 22 14 5 1 0 360 358 358 357 354 349 346 344 346 349 353 357 10 26 41 56 75 94 105 95 83 86 103 125 137 142 142 133
57 54 52 52 61 66 64 58 47 33 23 16 8 3 0 360 2 2 0 357 357 357 359 1 6 12 22 27 34 38 34 31 72 144 139 127 111 106 137 142 142 156 133
55 57 57 53 52 61 67 65 58 46 31 21 15 9 5 4 5 5 3 2 3 7 9 9 13 14 23 34 34 29 22 30 49 130 153 143 150 160 173 154 134 139 127
60 59 61 60 54 51 54 60 63 56 43 29 21 18 13 10 7 6 5 8 8 10 11 10 16 23 19 25 23 18 21 27 31 37 147 151 151 159 166 153 145 124 123